This is the latest recevied weather packets stored in our database for station/object K3BAY-1. If no packets are shown the sender has not sent any weather packets the latest 10 day(s).
| Time | Temp. | Humidity | Pressure | Rain* | Wind** | Luminosity | Snow |
|---|---|---|---|---|---|---|---|
| 1777397620 | 13.33° C | 86% | 1021.4 hPa | 0 mm | - | 121 W/m² | - |
| 1777397316 | 13.33° C | 86% | 1021.4 hPa | 0 mm | - | 118 W/m² | - |
| 1777397013 | 12.78° C | 86% | 1020.7 hPa | 0 mm | - | 80 W/m² | - |
| 1777396710 | 12.78° C | 86% | 1020.3 hPa | 0 mm | - | 81 W/m² | - |
| 1777396406 | 12.78° C | 86% | 1020.3 hPa | 0 mm | - | 81 W/m² | - |
| 1777396103 | 13.33° C | 87% | 1020.3 hPa | 0 mm | - | 97 W/m² | - |
| 1777395799 | 12.78° C | 88% | 1020.7 hPa | 0 mm | - | 118 W/m² | - |
| 1777395494 | 13.33° C | 89% | 1020.7 hPa | 0 mm | - | 120 W/m² | - |
| 1777395192 | 12.78° C | 89% | 1020.7 hPa | 0 mm | - | 141 W/m² | - |
| 1777394889 | 12.78° C | 89% | 1020.7 hPa | 0 mm | - | 137 W/m² | - |
| 1777394585 | 12.78° C | 89% | 1020.7 hPa | 0 mm | - | 137 W/m² | - |
| 1777394282 | 12.78° C | 89% | 1020.7 hPa | 0 mm | - | 108 W/m² | - |
| 1777393978 | 12.22° C | 89% | 1020.7 hPa | 0 mm | - | 88 W/m² | - |
| 1777393677 | 12.78° C | 89% | 1021 hPa | 0 mm | - | 75 W/m² | - |
| 1777393373 | 12.78° C | 89% | 1021 hPa | 0 mm | - | 58 W/m² | - |
| 1777393069 | 12.78° C | 89% | 1021 hPa | 0 mm | - | 72 W/m² | - |
| 1777392765 | 12.22° C | 88% | 1021 hPa | 0 mm | - | 66 W/m² | - |
| 1777392461 | 12.22° C | 88% | 1021 hPa | 0 mm | - | 59 W/m² | - |
| 1777392157 | 12.22° C | 87% | 1020.7 hPa | 1.27 mm | - | 45 W/m² | - |
| 1777391852 | 12.78° C | 87% | 1020.7 hPa | 1.27 mm | - | 64 W/m² | - |
| 1777391548 | 12.78° C | 88% | 1020.7 hPa | 0 mm | - | 110 W/m² | - |
| 1777391244 | 12.78° C | 87% | 1020.7 hPa | 0 mm | - | 110 W/m² | - |
| 1777390941 | 12.78° C | 88% | 1021 hPa | 0 mm | - | 103 W/m² | - |
| 1777390637 | 12.78° C | 88% | 1020.7 hPa | 0 mm | - | 101 W/m² | - |
| 1777390334 | 12.78° C | 87% | 1020.7 hPa | 0 mm | - | 111 W/m² | - |
* Rain latest hour (hover to see other rain measurements)
** Current wind speed in m/s (hover to see current wind gust speed)